Flight Track Log - Related Links

Times and Time Zones

All times are in EDT time to prevent confusion due to time zone crossing. See the AAY834 flight status page for this flight to view local times or setup timezone preferences in your user account.


Time Position Orientation Groundspeed Altitude Reporting Facility
EDT Latitude Longitude Course Direction KTS MPH feet Rate Location/Type
Sun 11:21:03 AM 27.9333 -82.7000 North 157 181 700  Level Tampa TRACON
Sun 11:22:21 AM 28.0000 -82.6667 24° Northeast 255 293 2,600 2,286 Climbing Tampa TRACON
Sun 11:23:00 AM 29.0975 -82.6167 North  Level FlightAware Approximate
Sun 11:24:00 AM 29.2176 -82.6167 North  Level FlightAware Approximate
Sun 11:24:12 AM 28.1269 -82.7019 346° North 269 310 7,900  Level Jacksonville Center
Sun 11:25:00 AM 29.3370 -82.6050 North  Level FlightAware Approximate
Sun 11:25:11 AM 28.2061 -82.6875 North 274 315 10,500  Level Jacksonville Center
Sun 11:26:00 AM 29.4567 -82.6000 North  Level FlightAware Approximate
Sun 11:26:12 AM 28.3000 -82.6875 360° North 303 349 12,000  Level Jacksonville Center
Sun 11:27:12 AM 28.4022 -82.6872 360° North 339 390 14,400 2,350 Climbing Jacksonville Center
Sun 11:28:12 AM 28.5067 -82.6894 359° North 358 412 16,700 2,050 Climbing Jacksonville Center
Sun 11:29:12 AM 28.6150 -82.6892 360° North 375 432 18,500 1,850 Climbing Jacksonville Center
Sun 11:30:12 AM 28.7342 -82.6867 North 380 437 20,400 1,750 Climbing Jacksonville Center
Sun 11:31:12 AM 28.8508 -82.6864 360° North 390 449 22,000 1,650 Climbing Jacksonville Center
Sun 11:32:12 AM 28.9678 -82.6861 360° North 401 461 23,700 1,664 Climbing Jacksonville Center
Sun 11:33:11 AM 29.0889 -82.6883 359° North 412 474 25,300 1,500 Climbing Jacksonville Center
Sun 11:34:12 AM 29.2100 -82.6881 360° North 422 486 26,700 1,451 Climbing Jacksonville Center
Sun 11:39:15 AM 29.8618 -82.6865 360° North 446 513 34,100 1,270 Climbing FlightAware ADS-B
Sun 11:41:03 AM 30.0842 -82.6862 360° North 448 516 35,400 837 Climbing FlightAware ADS-B
Sun 11:42:43 AM 30.2907 -82.6862 360° North 440 506 37,000 604 Climbing FlightAware ADS-B
Sun 11:43:52 AM 30.4335 -82.6852 North 441 507 37,100 38 Climbing FlightAware ADS-B
Sun 11:45:21 AM 30.6110 -82.6383 23° Northeast 442 509 37,100 -43 Level FlightAware ADS-B
Sun 11:46:12 AM 30.6983 -82.6003 23° Northeast 436 502 37,000 -54 Descending Jacksonville Center
Sun 11:47:12 AM 30.8131 -82.5467 22° Northeast 436 502 37,000 50 Level Jacksonville Center
Sun 11:48:11 AM 30.9256 -82.4931 22° Northeast 436 502 37,100  Climbing Jacksonville Center
Sun 11:49:12 AM 31.0361 -82.4392 23° Northeast 431 496 37,000 -50 Descending Jacksonville Center
Sun 11:50:12 AM 31.1444 -82.3878 22° Northeast 426 490 37,000  Level Jacksonville Center
Sun 11:51:12 AM 31.2572 -82.3361 21° North 426 490 37,000 15 Level Jacksonville Center
Sun 11:56:40 AM 31.8768 -82.0354 22° Northeast 441 507 37,100 14 Climbing FlightAware ADS-B
Sun 11:58:07 AM 32.0560 -81.9484 23° Northeast 437 503 37,100  Level FlightAware ADS-B
Sun 12:04:24 PM 32.7150 -81.5863 31° Northeast 426 490 37,100 -14 Level FlightAware ADS-B
Sun 12:05:12 PM 32.7897 -81.5333 31° Northeast 422 486 37,000  Descending Jacksonville Center
Sun 12:10:20 PM 33.3159 -81.1524 31° Northeast 416 479 37,100  Climbing FlightAware ADS-B
Sun 12:10:52 PM 33.3696 -81.1132 31° Northeast 416 479 37,000 -82 Descending FlightAware ADS-B
Sun 12:11:33 PM 33.4371 -81.0641 31° Northeast 417 480 37,000 83 Level FlightAware ADS-B
Sun 12:12:04 PM 33.4894 -81.0260 31° Northeast 417 480 37,100 97 Climbing FlightAware ADS-B
Sun 12:12:35 PM 33.5396 -80.9894 32° Northeast 417 480 37,100  Level FlightAware ADS-B
Sun 12:13:07 PM 33.5927 -80.9505 32° Northeast 417 480 37,100 -563 Level FlightAware ADS-B
Sun 12:13:39 PM 33.6454 -80.9118 32° Northeast 414 476 36,500 -930 Descending FlightAware ADS-B
Sun 12:14:18 PM 33.7092 -80.8648 32° Northeast 418 481 36,000 -878 Descending FlightAware ADS-B
Sun 12:15:01 PM 33.7822 -80.8110 32° Northeast 430 495 35,300 -600 Descending FlightAware ADS-B
Sun 12:15:58 PM 33.8794 -80.7394 32° Northeast 433 498 35,000 -126 Descending FlightAware ADS-B
Sun 12:16:36 PM 33.9395 -80.6951 32° Northeast 431 496 35,100 -71 Climbing FlightAware ADS-B
Sun 12:17:22 PM 34.0218 -80.6341 32° Northeast 430 495 34,900 -628 Descending FlightAware ADS-B
Sun 12:18:02 PM 34.0890 -80.5839 32° Northeast 434 499 34,200 -1,398 Descending FlightAware ADS-B
Sun 12:19:05 PM 34.1983 -80.5024 32° Northeast 441 507 32,500 -2,158 Descending FlightAware ADS-B
Sun 12:19:56 PM 34.2854 -80.4378 32° Northeast 431 496 30,100 -2,263 Descending FlightAware ADS-B
Sun 12:20:59 PM 34.3881 -80.3610 32° Northeast 431 496 28,200 -1,983 Descending FlightAware ADS-B
Sun 12:21:57 PM 34.4802 -80.2918 32° Northeast 431 496 26,100 -2,236 Descending FlightAware ADS-B
Sun 12:22:49 PM 34.5627 -80.2298 32° Northeast 395 455 24,100 -1,857 Descending FlightAware ADS-B
Sun 12:23:21 PM 34.5842 -80.2136 32° Northeast 385 443 23,500 -747 Descending FlightAware ADS-B
Sun 12:27:06 PM 34.9457 -79.9679 26° Northeast 403 464 20,900 -854 Descending FlightAware ADS-B
Sun 12:27:48 PM 35.0183 -79.9250 26° Northeast 389 448 19,700 -1,390 Descending FlightAware ADS-B
Sun 12:28:28 PM 35.0900 -79.8827 26° Northeast 365 420 19,000 -1,000 Descending FlightAware ADS-B
Sun 12:29:06 PM 35.1527 -79.8457 26° Northeast 365 420 18,400 -1,054 Descending FlightAware ADS-B
Sun 12:29:42 PM 35.2084 -79.8126 26° Northeast 367 422 17,700 -1,317 Descending FlightAware ADS-B
Sun 12:30:28 PM 35.2771 -79.7718 26° Northeast 362 417 16,600 -1,535 Descending FlightAware ADS-B
Sun 12:31:08 PM 35.3374 -79.7361 26° Northeast 358 412 15,500 -1,658 Descending FlightAware ADS-B
Sun 12:31:44 PM 35.3923 -79.7035 26° Northeast 353 406 14,500 -1,595 Descending FlightAware ADS-B
Sun 12:32:27 PM 35.4543 -79.6663 26° Northeast 348 400 13,400 -1,390 Descending FlightAware ADS-B
Sun 12:33:06 PM 35.5100 -79.6329 26° Northeast 334 384 12,600 -1,424 Descending FlightAware ADS-B
Sun 12:33:26 PM 35.5388 -79.6196 North 327 376 12,000 -1,579 Descending FlightAware ADS-B
Sun 12:33:44 PM 35.5645 -79.6229 341° North 316 364 11,600 -1,050 Descending FlightAware ADS-B
Sun 12:34:06 PM 35.5923 -79.6417 329° Northwest 302 348 11,300 -968 Descending FlightAware ADS-B
Sun 12:34:46 PM 35.6400 -79.6767 329° Northwest 287 330 10,600 -835 Descending FlightAware ADS-B
Sun 12:35:25 PM 35.6800 -79.7057 329° Northwest 265 305 10,200 -621 Descending FlightAware ADS-B
Sun 12:35:44 PM 35.6921 -79.7146 329° Northwest 257 296 10,000 -1,000 Descending FlightAware ADS-B
Sun 12:36:07 PM 35.7251 -79.7388 329° Northwest 255 293 9,500 -1,143 Descending FlightAware ADS-B
Sun 12:36:47 PM 35.7408 -79.7505 329° Northwest 246 283 8,800 -928 Descending FlightAware ADS-B
Sun 12:37:44 PM 35.7928 -79.8118 300° West 227 261 8,000 -769 Descending FlightAware ADS-B
Sun 12:38:05 PM 35.8050 -79.8376 300° West 215 247 7,800 -818 Descending FlightAware ADS-B
Sun 12:38:28 PM 35.8226 -79.8750 300° West 208 239 7,400 -1,171 Descending FlightAware ADS-B
Sun 12:38:46 PM 35.8317 -79.8943 301° West 207 238 7,000 -1,231 Descending FlightAware ADS-B
Sun 12:39:07 PM 35.8411 -79.9137 301° West 206 237 6,600 -571 Descending FlightAware ADS-B
Sun 12:39:28 PM 35.8502 -79.9324 301° West 184 212 6,600 -439 Level FlightAware ADS-B
Sun 12:39:48 PM 35.8599 -79.9522 301° West 174 200 6,300 -900 Descending FlightAware ADS-B
Sun 12:40:08 PM 35.8680 -79.9685 301° West 171 197 6,000 -923 Descending FlightAware ADS-B
Sun 12:40:27 PM 35.8748 -79.9824 301° West 169 194 5,700 -1,077 Descending FlightAware ADS-B
Sun 12:40:47 PM 35.8841 -80.0010 302° West 167 192 5,300 -1,024 Descending FlightAware ADS-B
Sun 12:41:08 PM 35.8927 -80.0173 304° West 165 190 5,000 -1,024 Descending FlightAware ADS-B
Sun 12:41:28 PM 35.9016 -80.0332 304° West 162 186 4,600 -1,077 Descending FlightAware ADS-B
Sun 12:41:47 PM 35.9093 -80.0472 304° West 163 188 4,300 -1,200 Descending FlightAware ADS-B
Sun 12:42:08 PM 35.9184 -80.0637 304° West 167 192 3,800 -1,200 Descending FlightAware ADS-B
Sun 12:42:27 PM 35.9239 -80.0734 304° West 166 191 3,500 -1,200 Descending FlightAware ADS-B
Sun 12:42:48 PM 35.9380 -80.0931 335° Northwest 171 197 3,000 -1,024 Descending FlightAware ADS-B
Sun 12:43:08 PM 35.9517 -80.0935 12° North 169 194 2,800 -305 Descending FlightAware ADS-B
Sun 12:43:47 PM 35.9832 -80.0800 31° Northeast 173 199 2,700 -76 Descending FlightAware ADS-B
Sun 12:44:27 PM 36.0059 -80.0529 46° Northeast 170 196 2,700  Level FlightAware ADS-B
Sun 12:44:48 PM 36.0153 -80.0411 46° Northeast 165 190 2,700  Level FlightAware ADS-B

Login

Don't have an account? Register now (free) for customized features, flight alerts, and more!